When you browse on this site, cookies collect data to enhance your experience and personalize the content and advertising you see.
Visit our Privacy Policy to learn more. By continuing to use the site, you agree to this use of cookies and data.
  • In Austria
  • List of Countries
  • For 7 days
  • Water Temperature
  • Satellite Maps
  • Weather Map
  • News
  • Weather Widgets
  • user-avatar
    Login

    Hourly Weather Dikhil

    Today, 21 November, Wednesday

    Time Temperature Precipitation Wind Pressure Humidity
    00:00 +27°C° 0 mm 3 mps 720 mmHg 48%
    01:00 +26°C° 0 mm 2 mps 719 mmHg 50%
    02:00 +26°C° 0 mm 2 mps 719 mmHg 53%
    03:00 +25°C° 0 mm 2 mps 719 mmHg 55%
    04:00 +25°C° 0 mm 2 mps 719 mmHg 57%
    05:00 +24°C° 0 mm 2 mps 719 mmHg 59%
    06:00 +24°C° 0 mm 1 mps 720 mmHg 61%
    07:00 +25°C° 0 mm 2 mps 720 mmHg 54%
    08:00 +26°C° 0 mm 2 mps 720 mmHg 46%
    09:00 +28°C° 0 mm 3 mps 721 mmHg 39%
    10:00 +29°C° 0 mm 3 mps 720 mmHg 33%
    11:00 +32°C° 0 mm 4 mps 720 mmHg 28%
    12:00 +33°C° 0 mm 4 mps 720 mmHg 22%
    13:00 +34°C° 0 mm 5 mps 719 mmHg 21%
    14:00 +34°C° 0 mm 6 mps 719 mmHg 20%
    15:00 +35°C° 0 mm 6 mps 718 mmHg 19%
    16:00 +34°C° 0 mm 6 mps 718 mmHg 22%
    17:00 +33°C° 0 mm 6 mps 718 mmHg 25%
    18:00 +32°C° 0 mm 6 mps 718 mmHg 27%
    19:00 +30°C° 0 mm 5 mps 719 mmHg 31%
    20:00 +29°C° 0 mm 5 mps 719 mmHg 34%
    21:00 +28°C° 0 mm 4 mps 719 mmHg 38%
    22:00 +28°C° 0 mm 3 mps 719 mmHg 41%
    23:00 +27°C° 0 mm 3 mps 719 mmHg 44%

    Tomorrow, 22 November, Thursday

    Time Temperature Precipitation Wind Pressure Humidity
    00:00 +26°C° 0 mm 2 mps 719 mmHg 47%
    01:00 +26°C° 0 mm 2 mps 719 mmHg 50%
    02:00 +25°C° 0 mm 2 mps 719 mmHg 53%
    03:00 +25°C° 0 mm 2 mps 718 mmHg 55%
    04:00 +24°C° 0 mm 2 mps 718 mmHg 57%
    05:00 +24°C° 0 mm 2 mps 719 mmHg 59%
    06:00 +24°C° 0 mm 2 mps 719 mmHg 61%
    07:00 +25°C° 0 mm 2 mps 719 mmHg 55%
    08:00 +26°C° 0 mm 3 mps 720 mmHg 49%
    09:00 +28°C° 0 mm 4 mps 720 mmHg 43%
    10:00 +29°C° 0 mm 5 mps 720 mmHg 38%
    11:00 +32°C° 0 mm 6 mps 720 mmHg 33%
    12:00 +33°C° 0 mm 7 mps 719 mmHg 28%
    13:00 +34°C° 0 mm 7 mps 719 mmHg 28%
    14:00 +34°C° 0 mm 7 mps 718 mmHg 28%
    15:00 +34°C° 0 mm 8 mps 717 mmHg 27%
    16:00 +33°C° 0 mm 8 mps 718 mmHg 31%
    17:00 +32°C° 0 mm 7 mps 718 mmHg 35%
    18:00 +30°C° 0 mm 7 mps 718 mmHg 39%
    19:00 +29°C° 0 mm 7 mps 718 mmHg 43%
    20:00 +28°C° 0 mm 6 mps 719 mmHg 48%
    21:00 +27°C° 0 mm 6 mps 719 mmHg 52%
    22:00 +27°C° 0 mm 5 mps 719 mmHg 55%
    23:00 +26°C° 0 mm 5 mps 719 mmHg 59%

    Day after tomorrow, 23 November, Friday

    Time Temperature Precipitation Wind Pressure Humidity
    00:00 +26°C° 0 mm 5 mps 719 mmHg 62%
    01:00 +25°C° 0 mm 5 mps 718 mmHg 66%
    02:00 +25°C° 0 mm 5 mps 718 mmHg 70%
    03:00 +23°C° 0 mm 4 mps 718 mmHg 74%
    04:00 +23°C° 0 mm 4 mps 718 mmHg 75%
    05:00 +23°C° 0 mm 4 mps 718 mmHg 77%
    06:00 +23°C° 0 mm 4 mps 718 mmHg 78%
    07:00 +25°C° 0 mm 5 mps 719 mmHg 72%
    08:00 +26°C° 0 mm 6 mps 720 mmHg 66%
    09:00 +28°C° 0 mm 6 mps 720 mmHg 59%
    10:00 +29°C° 0 mm 6 mps 720 mmHg 54%
    11:00 +30°C° 0 mm 6 mps 719 mmHg 49%
    12:00 +32°C° 0 mm 6 mps 719 mmHg 44%
    13:00 +33°C° 0 mm 6 mps 718 mmHg 44%
    14:00 +33°C° 0 mm 6 mps 718 mmHg 44%
    15:00 +33°C° 0 mm 6 mps 717 mmHg 43%
    16:00 +32°C° 0 mm 7 mps 717 mmHg 50%
    17:00 +30°C° 0 mm 7 mps 717 mmHg 57%
    18:00 +28°C° 0 mm 8 mps 717 mmHg 64%
    19:00 +28°C° 0 mm 8 mps 718 mmHg 67%
    20:00 +27°C° 0 mm 8 mps 718 mmHg 70%
    21:00 +27°C° 0 mm 7 mps 719 mmHg 74%
    22:00 +26°C° 0 mm 7 mps 719 mmHg 74%
    23:00 +26°C° 0 mm 6 mps 719 mmHg 75%

    24 November, Saturday

    Time Temperature Precipitation Wind Pressure Humidity
    00:00 +26°C° 0 mm 6 mps 718 mmHg 76%
    01:00 +26°C° 0 mm 6 mps 718 mmHg 77%
    02:00 +26°C° 0 mm 5 mps 718 mmHg 78%
    03:00 +25°C° 0 mm 5 mps 717 mmHg 79%
    04:00 +25°C° 0 mm 5 mps 718 mmHg 79%
    05:00 +25°C° 0 mm 4 mps 718 mmHg 80%
    06:00 +25°C° 0 mm 4 mps 718 mmHg 80%
    07:00 +26°C° 0 mm 5 mps 719 mmHg 75%
    08:00 +27°C° 0 mm 5 mps 720 mmHg 69%
    09:00 +28°C° 0 mm 6 mps 720 mmHg 64%
    10:00 +29°C° 0 mm 6 mps 720 mmHg 57%
    11:00 +32°C° 0 mm 6 mps 719 mmHg 51%
    12:00 +33°C° 0 mm 6 mps 719 mmHg 45%
    13:00 +34°C° 0 mm 6 mps 718 mmHg 45%
    14:00 +34°C° 0 mm 6 mps 717 mmHg 45%
    15:00 +34°C° 0 mm 7 mps 717 mmHg 44%
    16:00 +33°C° 0 mm 7 mps 717 mmHg 51%
    17:00 +32°C° 0 mm 7 mps 717 mmHg 57%
    18:00 +29°C° 0 mm 7 mps 717 mmHg 63%
    19:00 +29°C° 0 mm 7 mps 718 mmHg 66%
    20:00 +28°C° 0 mm 7 mps 718 mmHg 69%
    21:00 +28°C° 0 mm 7 mps 719 mmHg 73%
    22:00 +27°C° 0 mm 7 mps 719 mmHg 74%
    23:00 +27°C° 0 mm 6 mps 719 mmHg 75%

    25 November, Sunday

    Time Temperature Precipitation Wind Pressure Humidity
    00:00 +27°C° 0 mm 6 mps 718 mmHg 76%
    01:00 +27°C° 0 mm 6 mps 718 mmHg 77%
    02:00 +27°C° 0 mm 6 mps 718 mmHg 77%
    03:00 +26°C° 0 mm 6 mps 717 mmHg 78%
    04:00 +26°C° 0 mm 5 mps 718 mmHg 79%
    05:00 +26°C° 0 mm 5 mps 718 mmHg 79%
    06:00 +26°C° 0 mm 5 mps 718 mmHg 80%
    07:00 +27°C° 0.1 mm 5 mps 719 mmHg 75%
    08:00 +28°C° 0.1 mm 6 mps 720 mmHg 70%
    09:00 +29°C° 0.1 mm 6 mps 720 mmHg 65%
    10:00 +30°C° 0.2 mm 6 mps 720 mmHg 60%
    11:00 +32°C° 0.2 mm 6 mps 719 mmHg 54%
    12:00 +33°C° 0.2 mm 7 mps 719 mmHg 49%
    13:00 +33°C° 0 mm 7 mps 718 mmHg 49%
    14:00 +33°C° 0 mm 7 mps 717 mmHg 50%
    15:00 +33°C° 0 mm 7 mps 717 mmHg 50%
    16:00 +32°C° 0 mm 7 mps 717 mmHg 54%
    17:00 +30°C° 0 mm 7 mps 717 mmHg 59%
    18:00 +29°C° 0 mm 7 mps 717 mmHg 64%
    19:00 +29°C° 0 mm 6 mps 718 mmHg 66%
    20:00 +28°C° 0 mm 6 mps 718 mmHg 69%
    21:00 +28°C° 0 mm 6 mps 719 mmHg 72%
    22:00 +28°C° 0.2 mm 5 mps 718 mmHg 73%
    23:00 +27°C° 0.2 mm 5 mps 718 mmHg 75%

    26 November, Monday

    Time Temperature Precipitation Wind Pressure Humidity
    00:00 +27°C° 0.2 mm 4 mps 718 mmHg 76%
    01:00 +27°C° 0 mm 4 mps 717 mmHg 77%
    02:00 +27°C° 0 mm 4 mps 717 mmHg 78%
    03:00 +26°C° 0 mm 4 mps 717 mmHg 79%
    04:00 +26°C° 0 mm 4 mps 717 mmHg 79%
    05:00 +26°C° 0 mm 4 mps 717 mmHg 80%
    06:00 +26°C° 0 mm 4 mps 718 mmHg 80%
    07:00 +27°C° 0 mm 4 mps 718 mmHg 76%
    08:00 +28°C° 0 mm 5 mps 719 mmHg 71%
    09:00 +29°C° 0 mm 5 mps 719 mmHg 66%
    10:00 +30°C° 0.1 mm 5 mps 719 mmHg 62%
    11:00 +32°C° 0.1 mm 6 mps 718 mmHg 57%
    12:00 +33°C° 0.1 mm 6 mps 718 mmHg 53%
    13:00 +33°C° 0 mm 6 mps 717 mmHg 53%
    14:00 +33°C° 0 mm 6 mps 717 mmHg 53%
    15:00 +33°C° 0 mm 7 mps 716 mmHg 52%
    16:00 +32°C° 0 mm 7 mps 716 mmHg 57%
    17:00 +30°C° 0 mm 7 mps 717 mmHg 61%
    18:00 +29°C° 0 mm 7 mps 717 mmHg 65%
    19:00 +29°C° 0 mm 6 mps 717 mmHg 68%
    20:00 +28°C° 0 mm 6 mps 718 mmHg 71%
    21:00 +28°C° 0 mm 5 mps 718 mmHg 73%
    22:00 +27°C° 0 mm 5 mps 718 mmHg 74%
    23:00 +27°C° 0 mm 5 mps 718 mmHg 75%
    Show more